{"data":{"norad_id":63779,"epoch":"2026-05-24T21:41:42.095616Z","epoch_age_seconds":83482,"freshness":"FRESH","line1":"1 63779U 25091E   26144.90395944  .00016802  00000+0  61858-3 0  9996","line2":"2 63779  43.0016 342.5104 0001472 268.4731  91.5952 15.27586445 60556","mean_motion":15.27586445,"eccentricity":0.0001472,"inclination_deg":43.0016,"raan_deg":342.5104,"arg_perigee_deg":268.4731,"mean_anomaly_deg":91.5952,"bstar":0.00061858,"rev_number":6055,"period_min":94.266350995279,"perigee_km":482.01983370634,"apogee_km":484.03976121151,"semimajor_km":6861.1667974589,"source":"CELESTRAK","updated_at":"2026-05-25T13:38:20.133259Z"}}